QPF
0.00 0.00 0.01 0.01 0.01 0.00 0.00 0.01 0.01 0.00 0.00 0.00 0.00 0.00 0.00 0.00 0.00 0.00 0.00 0.01 0.01 0.01 0.01 0.01 0.01 0.01 0.02 0.02 0.01 0.01 0.01 0.01 0.01 0.01 0.01 0.02 0.02 0.02 0.01 0.01 0.01 0.01 0.01
0.00 0.00 0.01 0.01 0.01 0.00 0.00 0.00 0.01 0.01 0.00 0.00 0.00 0.01 0.00 0.00 0.00 0.00 0.00 0.01 0.01 0.01 0.01 0.01 0.01 0.02 0.02 0.01 0.01 0.01 0.01 0.01 0.02 0.02 0.03 0.04 0.04 0.03 0.02 0.01 0.00 0.01 0.01
0.00 0.01 0.01 0.01 0.01 0.00 0.00 0.01 0.01 0.01 0.01 0.00 0.00 0.00 0.01 0.00 0.00 0.00 0.00 0.00 0.01 0.01 0.01 0.01 0.01 0.02 0.01 0.01 0.01 0.02 0.02 0.02 0.03 0.04 0.03 0.03 0.04 0.04 0.03 0.01 0.01 0.01 0.01
0.01 0.01 0.01 0.01 0.01 0.01 0.01 0.01 0.01 0.01 0.01 0.01 0.01 0.00 0.00 0.00 0.00 0.00 0.00 0.00 0.00 0.01 0.01 0.01 0.01 0.01 0.01 0.01 0.02 0.02 0.03 0.04 0.05 0.04 0.02 0.01 0.03 0.04 0.04 0.02 0.01 0.01 0.01
0.01 0.01 0.02 0.02 0.02 0.01 0.00 0.00 0.01 0.01 0.02 0.02 0.01 0.00 0.01 0.01 0.01 0.01 0.01 0.01 0.01 0.01 0.01 0.01 0.01 0.01 0.02 0.02 0.02 0.02 0.04 0.06 0.08 0.04 0.02 0.03 0.03 0.04 0.04 0.03 0.01 0.01 0.01
0.01 0.02 0.03 0.04 0.03 0.02 0.01 0.01 0.01 0.01 0.01 0.01 0.01 0.01 0.00 0.00 0.01 0.01 0.01 0.01 0.01 0.01 0.01 0.01 0.02 0.01 0.02 0.02 0.02 0.02 0.04 0.07 0.07 0.04 0.04 0.04 0.04 0.04 0.04 0.04 0.02 0.01 0.01
0.01 0.02 0.02 0.04 0.03 0.02 0.02 0.02 0.02 0.01 0.01 0.01 0.01 0.01 0.01 0.01 0.01 0.01 0.01 0.01 0.01 0.01 0.01 0.01 0.02 0.01 0.01 0.02 0.02 0.03 0.04 0.05 0.04 0.03 0.03 0.04 0.05 0.05 0.04 0.04 0.02 0.02 0.02
0.01 0.01 0.02 0.03 0.02 0.02 0.02 0.02 0.02 0.01 0.02 0.02 0.02 0.02 0.02 0.02 0.02 0.02 0.01 0.01 0.01 0.01 0.01 0.01 0.01 0.01 0.01 0.01 0.02 0.02 0.03 0.05 0.03 0.03 0.03 0.04 0.04 0.05 0.04 0.04 0.03 0.03 0.02
0.02 0.02 0.02 0.03 0.04 0.04 0.02 0.02 0.02 0.01 0.01 0.02 0.02 0.02 0.01 0.01 0.01 0.01 0.01 0.01 0.01 0.01 0.01 0.01 0.01 0.01 0.01 0.01 0.02 0.03 0.03 0.05 0.03 0.05 0.03 0.03 0.03 0.05 0.05 0.04 0.03 0.02 0.02
0.06 0.04 0.03 0.03 0.02 0.02 0.02 0.02 0.02 0.02 0.01 0.01 0.02 0.02 0.02 0.02 0.01 0.02 0.02 0.02 0.02 0.02 0.02 0.02 0.01 0.02 0.02 0.02 0.02 0.03 0.04 0.03 0.02 0.03 0.03 0.03 0.04 0.06 0.07 0.05 0.03 0.02 0.02
0.08 0.07 0.03 0.02 0.02 0.02 0.02 0.03 0.03 0.02 0.02 0.02 0.02 0.02 0.01 0.01 0.01 0.01 0.02 0.03 0.03 0.03 0.04 0.04 0.04 0.03 0.02 0.02 0.03 0.04 0.03 0.02 0.02 0.02 0.03 0.03 0.06 0.09 0.08 0.06 0.05 0.03 0.02
0.10 0.07 0.05 0.05 0.04 0.03 0.03 0.03 0.02 0.02 0.02 0.02 0.01 0.01 0.01 0.01 0.01 0.02 0.03 0.05 0.06 0.05 0.05 0.05 0.06 0.05 0.04 0.02 0.02 0.03 0.02 0.01 0.01 0.03 0.03 0.05 0.08 0.11 0.10 0.08 0.07 0.06 0.04
0.13 0.08 0.05 0.06 0.04 0.04 0.04 0.04 0.03 0.03 0.02 0.02 0.02 0.01 0.01 0.01 0.01 0.02 0.03 0.05 0.05 0.05 0.04 0.04 0.04 0.04 0.03 0.02 0.01 0.01 0.02 0.02 0.02 0.02 0.05 0.08 0.10 0.11 0.12 0.10 0.07 0.08 0.08
0.15 0.11 0.08 0.10 0.09 0.09 0.08 0.06 0.06 0.04 0.03 0.01 0.02 0.01 0.01 0.02 0.02 0.02 0.03 0.03 0.03 0.04 0.05 0.04 0.03 0.02 0.02 0.03 0.02 0.02 0.02 0.03 0.03 0.03 0.05 0.08 0.10 0.13 0.14 0.12 0.09 0.07 0.09
0.16 0.15 0.14 0.16 0.16 0.14 0.09 0.07 0.06 0.04 0.02 0.02 0.03 0.03 0.04 0.04 0.03 0.03 0.03 0.03 0.03 0.04 0.05 0.06 0.04 0.03 0.03 0.03 0.03 0.02 0.02 0.03 0.05 0.05 0.05 0.07 0.08 0.10 0.15 0.15 0.14 0.12 0.10
0.14 0.20 0.21 0.24 0.18 0.14 0.11 0.09 0.09 0.06 0.05 0.05 0.06 0.07 0.08 0.07 0.05 0.03 0.03 0.04 0.03 0.04 0.06 0.08 0.07 0.05 0.05 0.04 0.04 0.03 0.03 0.03 0.04 0.06 0.06 0.08 0.09 0.10 0.16 0.19 0.18 0.16 0.12
0.10 0.14 0.17 0.17 0.17 0.18 0.17 0.11 0.10 0.09 0.08 0.07 0.08 0.09 0.08 0.07 0.06 0.04 0.04 0.04 0.05 0.06 0.08 0.10 0.11 0.11 0.09 0.07 0.05 0.04 0.04 0.04 0.05 0.07 0.09 0.09 0.09 0.11 0.13 0.15 0.16 0.17 0.16
0.11 0.13 0.19 0.23 0.25 0.22 0.17 0.13 0.10 0.07 0.07 0.06 0.07 0.07 0.06 0.05 0.04 0.03 0.03 0.03 0.05 0.08 0.10 0.12 0.16 0.17 0.13 0.10 0.07 0.06 0.06 0.06 0.07 0.08 0.07 0.06 0.08 0.08 0.10 0.12 0.14 0.16 0.17
0.12 0.15 0.16 0.19 0.18 0.15 0.15 0.16 0.10 0.07 0.07 0.07 0.10 0.10 0.07 0.04 0.04 0.04 0.03 0.03 0.04 0.06 0.09 0.10 0.12 0.13 0.13 0.10 0.07 0.06 0.07 0.06 0.07 0.11 0.09 0.06 0.06 0.07 0.09 0.11 0.13 0.16 0.19
0.11 0.09 0.08 0.08 0.10 0.12 0.13 0.10 0.08 0.08 0.06 0.05 0.06 0.07 0.05 0.04 0.05 0.05 0.04 0.05 0.05 0.06 0.06 0.07 0.08 0.09 0.08 0.08 0.06 0.06 0.07 0.07 0.05 0.07 0.10 0.09 0.07 0.07 0.09 0.09 0.11 0.13 0.20
0.11 0.09 0.07 0.06 0.08 0.10 0.10 0.07 0.07 0.06 0.05 0.05 0.05 0.04 0.04 0.04 0.03 0.04 0.04 0.05 0.05 0.05 0.06 0.06 0.05 0.06 0.06 0.07 0.06 0.04 0.05 0.05 0.03 0.05 0.07 0.09 0.09 0.09 0.09 0.09 0.10 0.10 0.15
0.06 0.08 0.08 0.08 0.08 0.07 0.07 0.09 0.09 0.07 0.05 0.06 0.05 0.03 0.03 0.04 0.04 0.04 0.04 0.06 0.06 0.05 0.05 0.05 0.04 0.03 0.04 0.04 0.04 0.04 0.03 0.03 0.03 0.03 0.05 0.06 0.08 0.10 0.11 0.11 0.10 0.09 0.09
0.06 0.07 0.07 0.06 0.06 0.04 0.05 0.09 0.11 0.08 0.06 0.07 0.05 0.03 0.04 0.04 0.04 0.04 0.04 0.05 0.05 0.04 0.04 0.04 0.04 0.03 0.03 0.04 0.05 0.04 0.03 0.02 0.02 0.02 0.03 0.05 0.08 0.09 0.10 0.12 0.12 0.09 0.08
0.09 0.09 0.08 0.06 0.05 0.04 0.04 0.05 0.07 0.08 0.06 0.05 0.04 0.04 0.04 0.04 0.04 0.04 0.03 0.04 0.04 0.04 0.04 0.03 0.03 0.03 0.03 0.04 0.04 0.05 0.05 0.05 0.04 0.04 0.04 0.05 0.07 0.09 0.10 0.12 0.15 0.15 0.12
0.04 0.07 0.06 0.06 0.05 0.03 0.04 0.04 0.03 0.04 0.03 0.04 0.03 0.03 0.04 0.04 0.04 0.04 0.04 0.03 0.04 0.04 0.04 0.03 0.04 0.04 0.05 0.05 0.05 0.05 0.05 0.05 0.05 0.05 0.04 0.04 0.05 0.06 0.08 0.11 0.14 0.14 0.14
0.05 0.06 0.06 0.04 0.03 0.02 0.03 0.03 0.03 0.03 0.03 0.04 0.04 0.04 0.04 0.04 0.03 0.03 0.04 0.04 0.03 0.03 0.02 0.03 0.03 0.04 0.05 0.06 0.06 0.05 0.04 0.05 0.06 0.06 0.05 0.05 0.06 0.07 0.07 0.08 0.10 0.13 0.15
MSLP
1012.36 1012.14 1012.09 1012.23 1012.50 1012.84 1013.17 1013.44 1013.62 1013.73 1013.81 1013.92 1014.13 1014.45 1014.87 1015.36 1015.84 1016.27 1016.58 1016.78 1016.88 1016.92 1016.96 1017.04 1017.19 1017.41 1017.68 1017.95 1018.20 1018.38 1018.51 1018.59 1018.64 1018.70 1018.78 1018.89 1019.03 1019.18 1019.32 1019.44 1019.53 1019.59 1019.64
1012.24 1012.13 1012.18 1012.40 1012.73 1013.11 1013.47 1013.74 1013.92 1014.03 1014.12 1014.25 1014.48 1014.82 1015.25 1015.74 1016.21 1016.62 1016.90 1017.07 1017.14 1017.17 1017.21 1017.29 1017.45 1017.68 1017.94 1018.20 1018.42 1018.58 1018.67 1018.73 1018.77 1018.83 1018.93 1019.07 1019.25 1019.43 1019.59 1019.72 1019.81 1019.86 1019.90
1012.13 1012.13 1012.28 1012.57 1012.97 1013.40 1013.79 1014.09 1014.29 1014.42 1014.53 1014.68 1014.91 1015.25 1015.68 1016.14 1016.57 1016.92 1017.16 1017.28 1017.32 1017.34 1017.38 1017.48 1017.65 1017.89 1018.15 1018.39 1018.58 1018.71 1018.78 1018.81 1018.85 1018.93 1019.06 1019.24 1019.45 1019.67 1019.85 1019.99 1020.07 1020.12 1020.14
1012.10 1012.18 1012.41 1012.78 1013.23 1013.71 1014.13 1014.46 1014.69 1014.84 1014.97 1015.14 1015.38 1015.70 1016.09 1016.50 1016.86 1017.15 1017.33 1017.41 1017.43 1017.44 1017.49 1017.61 1017.80 1018.05 1018.31 1018.54 1018.72 1018.82 1018.87 1018.89 1018.94 1019.03 1019.19 1019.41 1019.65 1019.89 1020.09 1020.24 1020.32 1020.36 1020.38
1012.17 1012.32 1012.60 1013.02 1013.51 1014.01 1014.46 1014.81 1015.07 1015.24 1015.39 1015.57 1015.80 1016.09 1016.44 1016.78 1017.08 1017.30 1017.42 1017.46 1017.47 1017.49 1017.57 1017.72 1017.94 1018.21 1018.48 1018.70 1018.86 1018.94 1018.98 1019.00 1019.05 1019.16 1019.34 1019.58 1019.85 1020.10 1020.31 1020.46 1020.54 1020.58 1020.61
1012.36 1012.54 1012.85 1013.28 1013.78 1014.29 1014.74 1015.10 1015.37 1015.56 1015.72 1015.90 1016.12 1016.39 1016.69 1016.97 1017.21 1017.37 1017.45 1017.48 1017.49 1017.53 1017.64 1017.83 1018.09 1018.38 1018.66 1018.88 1019.03 1019.10 1019.13 1019.14 1019.20 1019.31 1019.51 1019.76 1020.03 1020.28 1020.49 1020.63 1020.72 1020.76 1020.80
1012.66 1012.83 1013.13 1013.55 1014.03 1014.52 1014.96 1015.31 1015.57 1015.77 1015.93 1016.12 1016.33 1016.58 1016.84 1017.09 1017.28 1017.41 1017.46 1017.48 1017.50 1017.57 1017.72 1017.95 1018.24 1018.56 1018.84 1019.07 1019.21 1019.28 1019.29 1019.31 1019.36 1019.47 1019.66 1019.91 1020.17 1020.42 1020.62 1020.75 1020.83 1020.89 1020.94
1013.02 1013.16 1013.43 1013.81 1014.26 1014.70 1015.10 1015.43 1015.68 1015.87 1016.04 1016.23 1016.44 1016.69 1016.93 1017.16 1017.33 1017.43 1017.48 1017.50 1017.54 1017.63 1017.81 1018.06 1018.38 1018.71 1019.00 1019.23 1019.36 1019.42 1019.44 1019.45 1019.49 1019.60 1019.78 1020.01 1020.26 1020.49 1020.68 1020.81 1020.89 1020.95 1021.02
1013.38 1013.49 1013.72 1014.05 1014.45 1014.85 1015.21 1015.50 1015.72 1015.91 1016.08 1016.27 1016.50 1016.75 1017.00 1017.21 1017.38 1017.48 1017.52 1017.55 1017.59 1017.70 1017.89 1018.15 1018.47 1018.80 1019.09 1019.31 1019.45 1019.51 1019.52 1019.52 1019.56 1019.66 1019.83 1020.04 1020.26 1020.48 1020.65 1020.78 1020.88 1020.96 1021.05
1013.71 1013.79 1013.98 1014.28 1014.64 1014.99 1015.31 1015.56 1015.77 1015.94 1016.11 1016.32 1016.55 1016.81 1017.07 1017.29 1017.45 1017.55 1017.59 1017.62 1017.66 1017.76 1017.93 1018.18 1018.49 1018.80 1019.08 1019.30 1019.43 1019.49 1019.51 1019.51 1019.55 1019.64 1019.78 1019.97 1020.18 1020.39 1020.56 1020.70 1020.81 1020.92 1021.04
1014.01 1014.06 1014.24 1014.52 1014.85 1015.17 1015.45 1015.67 1015.85 1016.01 1016.19 1016.39 1016.63 1016.90 1017.16 1017.39 1017.56 1017.65 1017.69 1017.70 1017.73 1017.80 1017.95 1018.17 1018.44 1018.73 1018.99 1019.20 1019.33 1019.39 1019.41 1019.42 1019.45 1019.53 1019.66 1019.83 1020.03 1020.22 1020.40 1020.56 1020.71 1020.84 1020.99
1014.28 1014.34 1014.53 1014.80 1015.11 1015.40 1015.65 1015.85 1016.01 1016.16 1016.32 1016.52 1016.76 1017.02 1017.28 1017.51 1017.67 1017.76 1017.78 1017.78 1017.78 1017.83 1017.94 1018.13 1018.36 1018.62 1018.86 1019.05 1019.18 1019.25 1019.27 1019.28 1019.30 1019.36 1019.47 1019.63 1019.81 1020.01 1020.21 1020.39 1020.57 1020.74 1020.93
1014.58 1014.66 1014.86 1015.13 1015.43 1015.71 1015.94 1016.11 1016.25 1016.37 1016.51 1016.69 1016.91 1017.16 1017.40 1017.61 1017.76 1017.84 1017.86 1017.84 1017.83 1017.85 1017.94 1018.08 1018.29 1018.51 1018.73 1018.92 1019.04 1019.11 1019.13 1019.13 1019.14 1019.18 1019.26 1019.40 1019.57 1019.77 1019.98 1020.20 1020.41 1020.62 1020.84
1014.96 1015.05 1015.26 1015.53 1015.82 1016.07 1016.28 1016.43 1016.54 1016.63 1016.73 1016.88 1017.06 1017.26 1017.48 1017.66 1017.80 1017.87 1017.89 1017.87 1017.86 1017.88 1017.95 1018.08 1018.26 1018.47 1018.67 1018.85 1018.97 1019.03 1019.04 1019.03 1019.01 1019.02 1019.07 1019.17 1019.33 1019.52 1019.74 1019.98 1020.23 1020.47 1020.71
1015.45 1015.55 1015.74 1015.99 1016.25 1016.47 1016.65 1016.76 1016.84 1016.89 1016.95 1017.04 1017.16 1017.32 1017.48 1017.63 1017.75 1017.82 1017.85 1017.86 1017.86 1017.90 1017.98 1018.12 1018.30 1018.51 1018.71 1018.88 1018.99 1019.04 1019.04 1019.00 1018.95 1018.91 1018.92 1018.99 1019.11 1019.29 1019.51 1019.75 1020.02 1020.28 1020.55
1016.08 1016.15 1016.30 1016.49 1016.70 1016.88 1017.01 1017.08 1017.11 1017.12 1017.12 1017.15 1017.21 1017.30 1017.40 1017.51 1017.61 1017.68 1017.73 1017.78 1017.83 1017.91 1018.03 1018.19 1018.40 1018.61 1018.82 1018.99 1019.09 1019.14 1019.11 1019.04 1018.96 1018.88 1018.84 1018.86 1018.94 1019.09 1019.29 1019.53 1019.79 1020.05 1020.31
1016.82 1016.83 1016.90 1017.02 1017.15 1017.26 1017.34 1017.37 1017.36 1017.32 1017.27 1017.23 1017.22 1017.23 1017.27 1017.33 1017.40 1017.48 1017.55 1017.64 1017.74 1017.88 1018.05 1018.26 1018.50 1018.74 1018.96 1019.13 1019.24 1019.27 1019.24 1019.15 1019.03 1018.91 1018.83 1018.80 1018.84 1018.94 1019.11 1019.31 1019.54 1019.78 1020.01
1017.63 1017.55 1017.53 1017.54 1017.58 1017.62 1017.64 1017.63 1017.58 1017.51 1017.41 1017.31 1017.23 1017.17 1017.14 1017.14 1017.17 1017.24 1017.33 1017.45 1017.60 1017.79 1018.01 1018.27 1018.54 1018.81 1019.05 1019.24 1019.35 1019.39 1019.36 1019.26 1019.13 1019.00 1018.89 1018.82 1018.82 1018.87 1018.98 1019.13 1019.30 1019.48 1019.66
1018.44 1018.28 1018.15 1018.06 1018.01 1017.98 1017.95 1017.91 1017.84 1017.74 1017.61 1017.46 1017.31 1017.17 1017.07 1017.00 1016.98 1017.02 1017.10 1017.23 1017.41 1017.63 1017.90 1018.18 1018.48 1018.77 1019.03 1019.24 1019.38 1019.44 1019.43 1019.36 1019.25 1019.12 1019.00 1018.92 1018.88 1018.89 1018.94 1019.01 1019.10 1019.19 1019.28
1019.22 1018.99 1018.77 1018.59 1018.46 1018.37 1018.31 1018.25 1018.18 1018.07 1017.92 1017.73 1017.53 1017.32 1017.13 1016.99 1016.90 1016.87 1016.92 1017.03 1017.20 1017.43 1017.70 1017.99 1018.30 1018.60 1018.88 1019.11 1019.29 1019.39 1019.43 1019.41 1019.35 1019.26 1019.17 1019.09 1019.04 1019.00 1018.99 1018.97 1018.96 1018.93 1018.91
1019.93 1019.66 1019.39 1019.15 1018.96 1018.84 1018.76 1018.71 1018.64 1018.54 1018.39 1018.18 1017.92 1017.65 1017.38 1017.15 1016.97 1016.86 1016.84 1016.89 1017.02 1017.21 1017.44 1017.72 1018.01 1018.31 1018.60 1018.85 1019.07 1019.24 1019.35 1019.41 1019.42 1019.41 1019.37 1019.32 1019.27 1019.21 1019.13 1019.03 1018.90 1018.76 1018.61
1020.57 1020.31 1020.02 1019.75 1019.54 1019.41 1019.34 1019.30 1019.25 1019.17 1019.02 1018.80 1018.50 1018.17 1017.82 1017.50 1017.22 1017.02 1016.90 1016.86 1016.90 1017.02 1017.19 1017.41 1017.67 1017.94 1018.23 1018.51 1018.77 1019.00 1019.20 1019.35 1019.47 1019.54 1019.58 1019.58 1019.54 1019.47 1019.34 1019.16 1018.94 1018.67 1018.40
1021.17 1020.95 1020.68 1020.42 1020.22 1020.09 1020.03 1020.01 1019.99 1019.93 1019.79 1019.55 1019.23 1018.85 1018.43 1018.02 1017.65 1017.34 1017.11 1016.96 1016.90 1016.91 1017.00 1017.14 1017.33 1017.57 1017.84 1018.13 1018.43 1018.72 1019.00 1019.25 1019.46 1019.63 1019.75 1019.81 1019.81 1019.74 1019.58 1019.35 1019.05 1018.69 1018.33
1021.73 1021.59 1021.38 1021.16 1020.98 1020.86 1020.82 1020.82 1020.81 1020.75 1020.62 1020.38 1020.03 1019.61 1019.14 1018.65 1018.19 1017.78 1017.45 1017.19 1017.02 1016.93 1016.91 1016.96 1017.08 1017.26 1017.49 1017.78 1018.10 1018.43 1018.77 1019.10 1019.39 1019.65 1019.84 1019.96 1020.00 1019.95 1019.80 1019.55 1019.21 1018.81 1018.40
1022.27 1022.24 1022.10 1021.92 1021.77 1021.67 1021.63 1021.63 1021.62 1021.56 1021.42 1021.16 1020.81 1020.36 1019.85 1019.31 1018.79 1018.30 1017.88 1017.52 1017.25 1017.05 1016.93 1016.89 1016.92 1017.04 1017.23 1017.48 1017.79 1018.14 1018.52 1018.88 1019.24 1019.55 1019.80 1019.98 1020.08 1020.07 1019.95 1019.73 1019.41 1019.02 1018.61
1022.81 1022.87 1022.80 1022.67 1022.55 1022.45 1022.40 1022.38 1022.35 1022.27 1022.10 1021.84 1021.46 1021.00 1020.47 1019.91 1019.35 1018.81 1018.33 1017.90 1017.55 1017.26 1017.05 1016.92 1016.87 1016.92 1017.04 1017.25 1017.53 1017.86 1018.23 1018.60 1018.98 1019.32 1019.62 1019.85 1020.00 1020.06 1020.01 1019.86 1019.61 1019.30 1018.95
Thickness
5787 5787 5785 5783 5781 5780 5780 5779 5778 5776 5775 5773 5771 5769 5767 5765 5763 5761 5759 5758 5757 5756 5755 5753 5752 5751 5750 5749 5748 5747 5746 5744 5743 5742 5740 5739 5738 5736 5735 5735 5733 5732 5731
5791 5787 5783 5781 5779 5778 5777 5776 5774 5773 5772 5770 5769 5767 5764 5762 5760 5759 5757 5756 5755 5754 5752 5751 5750 5749 5748 5747 5746 5745 5743 5742 5741 5740 5739 5737 5736 5735 5734 5733 5732 5731 5729
5789 5785 5781 5779 5777 5776 5774 5773 5771 5770 5768 5767 5765 5764 5762 5760 5758 5756 5755 5753 5752 5751 5750 5749 5748 5747 5746 5745 5743 5742 5741 5740 5739 5738 5737 5735 5734 5733 5732 5731 5730 5729 5728
5786 5782 5779 5776 5774 5772 5771 5769 5768 5766 5764 5763 5761 5760 5758 5756 5755 5753 5752 5751 5750 5748 5747 5746 5745 5744 5743 5742 5741 5740 5739 5737 5736 5735 5734 5733 5733 5732 5731 5729 5728 5727 5726
5781 5778 5776 5773 5771 5769 5767 5765 5763 5762 5760 5758 5757 5755 5754 5752 5751 5750 5748 5747 5746 5746 5744 5743 5742 5741 5740 5740 5739 5737 5736 5735 5734 5733 5732 5731 5731 5730 5729 5728 5727 5726 5725
5776 5773 5771 5769 5767 5765 5763 5761 5760 5758 5756 5754 5753 5751 5750 5748 5747 5746 5745 5745 5744 5742 5742 5740 5739 5738 5738 5737 5736 5735 5734 5733 5732 5730 5729 5729 5729 5728 5727 5726 5725 5724 5723
5770 5768 5766 5764 5762 5760 5759 5757 5756 5754 5752 5751 5749 5748 5747 5745 5744 5743 5742 5742 5741 5740 5739 5738 5737 5736 5735 5734 5733 5733 5732 5731 5730 5729 5728 5727 5726 5726 5725 5724 5723 5722 5721
5767 5763 5761 5759 5758 5756 5754 5753 5752 5750 5748 5747 5746 5744 5743 5742 5741 5740 5739 5738 5737 5736 5736 5735 5734 5733 5732 5732 5731 5731 5730 5730 5729 5728 5726 5725 5725 5724 5723 5722 5722 5721 5720
5760 5757 5755 5753 5752 5751 5750 5748 5747 5746 5744 5743 5742 5741 5740 5739 5738 5737 5736 5735 5734 5733 5732 5732 5731 5730 5729 5729 5729 5728 5728 5728 5727 5726 5725 5724 5723 5723 5722 5721 5720 5719 5718
5753 5750 5749 5747 5746 5746 5745 5744 5743 5741 5740 5739 5738 5737 5736 5735 5734 5734 5733 5732 5731 5730 5730 5729 5728 5727 5727 5727 5726 5726 5725 5725 5725 5724 5723 5723 5722 5721 5720 5719 5718 5717 5717
5745 5744 5742 5741 5741 5740 5739 5738 5737 5736 5736 5734 5733 5733 5732 5731 5730 5730 5730 5729 5728 5728 5727 5726 5725 5725 5724 5724 5724 5723 5723 5723 5722 5722 5722 5721 5721 5720 5719 5718 5717 5716 5715
5737 5738 5737 5736 5735 5734 5733 5733 5732 5731 5731 5730 5729 5728 5727 5727 5726 5726 5726 5726 5726 5725 5724 5723 5722 5721 5721 5721 5720 5720 5720 5720 5719 5720 5720 5720 5719 5718 5717 5717 5716 5715 5713
5730 5730 5730 5730 5730 5729 5728 5727 5726 5726 5725 5724 5724 5723 5722 5722 5722 5722 5722 5722 5722 5721 5721 5720 5719 5718 5717 5717 5717 5717 5717 5716 5716 5716 5717 5718 5717 5717 5716 5715 5714 5713 5712
5725 5723 5723 5724 5723 5723 5722 5721 5720 5720 5719 5719 5718 5718 5718 5717 5716 5716 5716 5717 5717 5717 5717 5716 5715 5715 5714 5714 5714 5714 5714 5713 5713 5714 5714 5715 5715 5715 5714 5713 5712 5712 5711
5720 5718 5718 5719 5718 5718 5717 5716 5715 5714 5713 5713 5713 5713 5712 5711 5711 5710 5711 5712 5712 5712 5712 5712 5712 5711 5711 5710 5710 5710 5710 5710 5710 5711 5712 5712 5712 5712 5712 5711 5711 5710 5709
5713 5712 5712 5712 5712 5712 5712 5710 5708 5708 5708 5708 5708 5707 5707 5706 5705 5705 5705 5706 5706 5707 5708 5708 5708 5707 5707 5706 5706 5706 5706 5707 5707 5707 5708 5709 5709 5709 5709 5709 5708 5708 5707
5706 5706 5705 5706 5705 5705 5705 5704 5702 5702 5702 5702 5701 5701 5701 5700 5699 5699 5699 5700 5700 5701 5701 5702 5703 5703 5702 5702 5702 5702 5702 5703 5703 5703 5704 5705 5705 5706 5706 5706 5706 5705 5705
5701 5700 5700 5700 5698 5697 5697 5698 5697 5696 5696 5695 5695 5694 5693 5693 5692 5692 5693 5694 5695 5695 5696 5696 5696 5696 5696 5696 5696 5697 5698 5698 5699 5699 5700 5701 5701 5702 5703 5703 5703 5702 5702
5695 5694 5694 5693 5692 5691 5690 5690 5691 5690 5689 5688 5688 5686 5686 5686 5686 5687 5687 5688 5689 5689 5689 5690 5689 5689 5690 5690 5690 5691 5692 5692 5694 5695 5695 5696 5696 5697 5698 5698 5699 5699 5698
5687 5688 5687 5686 5685 5685 5685 5683 5683 5683 5681 5681 5681 5680 5679 5679 5680 5680 5681 5681 5681 5681 5682 5683 5682 5683 5683 5683 5684 5685 5685 5687 5688 5689 5690 5690 5690 5691 5692 5693 5694 5694 5694
5678 5679 5679 5679 5678 5678 5677 5676 5675 5674 5674 5674 5673 5672 5672 5672 5672 5672 5672 5673 5673 5673 5673 5675 5675 5675 5675 5675 5675 5675 5678 5680 5681 5682 5683 5683 5684 5685 5686 5687 5687 5688 5689
5670 5670 5670 5670 5670 5670 5668 5667 5668 5667 5666 5666 5665 5664 5664 5664 5664 5664 5664 5664 5665 5665 5665 5666 5666 5666 5667 5667 5667 5666 5666 5669 5672 5674 5675 5675 5676 5677 5678 5679 5680 5682 5683
5663 5663 5663 5661 5661 5661 5661 5661 5661 5660 5658 5657 5656 5655 5655 5655 5655 5655 5655 5656 5656 5656 5656 5657 5658 5658 5658 5659 5660 5659 5658 5659 5661 5664 5665 5666 5667 5668 5669 5671 5672 5674 5676
5656 5656 5656 5655 5653 5653 5653 5653 5651 5649 5647 5646 5645 5645 5645 5645 5645 5645 5646 5647 5647 5647 5648 5649 5651 5651 5651 5651 5652 5653 5654 5655 5653 5654 5655 5657 5658 5659 5660 5662 5663 5665 5667
5651 5650 5649 5647 5646 5644 5643 5642 5641 5639 5637 5636 5635 5635 5635 5635 5635 5636 5636 5637 5637 5638 5639 5640 5642 5643 5644 5644 5645 5646 5647 5648 5649 5648 5648 5648 5649 5649 5651 5653 5654 5656 5658
5643 5642 5640 5639 5637 5636 5634 5633 5631 5629 5628 5627 5626 5625 5624 5624 5625 5626 5626 5627 5627 5628 5629 5631 5633 5634 5636 5637 5638 5639 5640 5641 5642 5643 5642 5641 5640 5640 5641 5643 5645 5646 5648